[[{"header":{"parameterUnit":"m.s-1","parameterCategory":1,"la1":30.2991,"la2":30.254,"lo1":-89.0895,"lo2":-89.0444,"dy":0.0017,"dx":0.0017,"nx":28,"ny":28,"refTime":"2023-06-19T21:00:00:Z","depth":0,"parameterNumber":2,"parameterNumberName":"U-component_of_WINDS"},"data":[0,0,0,0,0,0,0,0,0,0,0,0,0,0,0,0,0,0,0,0,0,0,0,0,0,0,0,0,0,0,0,0,0,0,0,0,0,0,0,0,0,0,0,0,0,0,0,0,0,0,0,0,0,0,0,0,0,0,2.0206,2.0207,0,2.0269,2.027,2.027,2.0232,2.023,2.0229,2.0227,2.0297,2.03,2.0304,0,0,0,0,0,0,0,0,0,0,0,0,0,2.0059,2.0062,2.0206,2.0207,2.0208,2.0269,2.027,2.0271,2.0233,2.023,2.0228,2.0226,2.0296,2.03,2.0304,0,0,0,0,0,0,0,0,0,0,0,0,0,2.0123,2.0063,2.0206,2.0196,2.0196,2.0269,2.027,2.0271,2.0233,2.023,2.0227,2.0225,2.0294,2.03,2.0305,2.0393,0,0,2.0321,2.0324,0,0,0,0,0,0,0,0,2.0119,2.0128,2.0197,2.0197,2.0197,2.024,2.0244,2.0312,2.0234,2.0219,2.0227,2.0224,2.0281,2.0287,2.0305,2.0396,2.0399,2.0322,2.0325,2.0327,2.0329,0,0,0,0,0,0,0,2.0115,2.0125,2.0231,2.0198,2.0198,2.019,2.0196,2.0256,2.0265,2.022,2.0217,2.0225,2.028,2.03,2.0306,2.04,2.0322,2.0326,2.033,2.0332,2.0568,2.057,0,0,0,0,0,0,2.011,2.0122,2.0229,2.0233,2.015,2.0195,2.0202,2.0229,2.0264,2.0266,2.0227,2.0223,2.0292,2.03,2.0309,2.0414,2.0327,2.0332,2.0335,2.0565,2.0568,2.0572,0,0,0,0,0,0,2.0107,2.012,2.0227,2.0177,2.019,2.02,2.0231,2.0232,2.0251,2.0269,2.0271,2.0246,2.029,2.0301,2.0372,2.0416,2.0335,2.034,2.0561,2.0566,2.057,2.0625,0,0,0,0,0,0,2.0103,2.0119,2.0152,2.0178,2.0192,2.0288,2.0234,2.0235,2.026,2.0255,2.0287,2.029,2.0289,2.0364,2.0377,2.0422,2.0344,2.0557,2.0563,2.0568,2.0619,2.0631,2.0641,0,0,0,0,0,2.0098,2.0166,2.0153,2.0167,2.0233,2.029,2.0299,2.0295,2.0263,2.0297,2.0309,2.0289,2.0409,2.0372,2.0386,2.0433,2.0554,2.0561,2.0568,2.0614,2.0628,2.064,0,0,0,0,0,0,2.0147,2.0169,2.0156,2.0234,2.026,2.0283,2.0325,2.031,2.0347,2.0341,2.0336,2.0344,2.0418,2.0433,2.0391,2.052,2.0477,2.0487,2.0507,2.0521,2.0531,2.0526,2.0348,0,0,0,0,0,2.0166,2.0209,2.0227,2.0294,2.0308,2.0315,2.0339,2.0334,2.0362,2.0373,2.039,2.042,2.0464,2.0493,2.0535,2.0622,2.0628,2.0661,2.0671,2.068,2.0689,2.0735,2.075,2.0594,2.0594,2.0594,0,0,2.0208,2.0225,2.0253,2.0305,2.0324,2.037,2.0324,2.0375,2.0409,2.0382,2.0449,2.0463,2.0495,2.0574,2.061,2.0589,2.0733,2.0689,2.0696,2.07,2.0744,2.0759,2.0772,2.0599,2.0598,2.0597,0,0,2.0306,2.0324,2.0381,2.0401,2.0431,2.0435,2.0449,2.0475,2.0482,2.0549,2.0529,2.0571,2.0648,2.0672,2.0694,2.0802,2.0785,2.0816,2.0871,2.0917,2.0929,2.094,2.0978,2.0992,2.0824,2.0825,2.0825,0,2.0354,2.042,2.0413,2.0465,2.0488,2.0464,2.0523,2.0544,2.0587,2.0604,2.058,2.0675,2.0695,2.0779,2.0805,2.0824,2.0841,2.0811,2.0927,2.0938,2.0948,2.0985,2.0999,2.0828,2.0828,2.0827,2.0827,0,2.0478,2.0524,2.0568,2.0607,2.0636,2.0691,2.0694,2.0724,2.0717,2.0724,2.0793,2.0816,2.0862,2.0882,2.0876,2.0965,2.0951,2.0927,2.0884,2.0967,2.1001,2.1015,2.0833,2.0832,2.0831,2.083,0,0,2.0608,2.0642,2.0658,2.0676,2.0707,2.0744,2.0799,2.0842,2.0868,2.0899,2.0945,2.101,2.0988,2.1014,2.101,2.105,2.1133,2.1022,2.1022,2.1041,2.1233,2.125,2.1266,2.1123,2.1125,2.1127,2.123,0,2.0707,2.08,2.0796,2.0884,2.0927,2.0904,2.0952,2.0978,2.0986,2.1025,2.1035,2.1081,2.1049,2.1064,2.1102,2.1115,2.1172,2.1108,2.1166,2.1169,2.1158,2.1283,2.1301,2.1397,2.1243,2.1245,2.1247,0,2.0835,2.0868,2.096,2.0984,2.1002,2.1045,2.1084,2.1122,2.1151,2.1154,2.1182,2.1172,2.1229,2.1185,2.1264,2.122,2.1244,2.1254,2.1258,2.1262,2.1212,2.1291,2.1427,2.1441,2.1268,2.1266,2.1265,0,2.092,2.0988,2.1051,2.1067,2.1097,2.1128,2.1143,2.1168,2.1194,2.123,2.1246,2.1289,2.1312,2.1345,2.1347,2.1315,2.1427,2.1383,2.1432,2.1432,2.1456,2.1454,2.1597,2.1473,2.1473,2.1473,2.1472,0,2.1031,2.1088,2.1089,2.1128,2.1192,2.1187,2.125,2.1262,2.1285,2.1327,2.1312,2.1352,2.1353,2.1394,2.1397,2.1462,2.1473,2.1477,2.1477,2.1478,2.1477,2.1493,2.1486,2.1476,2.1476,2.1475,2.1474,0,2.1135,2.1139,2.1206,2.1229,2.1236,2.1282,2.1302,2.134,2.1347,2.14,2.1413,2.1424,2.1472,2.1478,2.1535,2.1536,2.1614,2.1608,2.1604,2.1602,2.165,2.1645,2.1808,2.1829,2.1692,2.1694,2.1695,0,2.1205,2.1248,2.1275,2.1301,2.1317,2.1359,2.1385,2.1383,2.1411,2.1447,2.1481,2.1527,2.1563,2.1642,2.1656,2.1699,2.1693,2.1747,2.17,2.1699,2.1693,2.169,2.1694,2.1756,2.1758,2.1759,2.176,0,2.1329,2.1328,2.1365,2.1403,2.1434,2.1465,2.1493,2.1516,2.1517,2.155,2.1598,2.1626,2.1683,2.1729,2.1772,2.1788,2.1775,2.1775,2.1788,2.1789,2.1784,2.1786,2.1627,2.1771,2.177,2.1769,2.1768,2.1768,2.1417,2.1454,2.1479,2.1521,2.1542,2.1568,2.1605,2.1616,2.1655,2.1699,2.1697,2.1749,2.1778,2.1833,2.1853,2.1896,2.1878,2.1898,2.1902,2.1907,2.1911,2.1778,2.1904,2.1903,2.1903,2.1903,2.1903,0,2.1539,2.1554,2.1592,2.1631,2.1665,2.1648,2.1679,2.1708,2.1754,2.1781,2.1817,2.1872,2.1917,2.1934,2.1979,2.2009,2.2004,2.2021,2.2018,2.2022,2.1925,2.1908,2.2024,2.2024,2.2024,2.2024,2.2024,2.2024,2.1606,2.1667,2.167,2.1741,2.1756,2.1806,2.1825,2.185,2.1871,2.1933,2.1969,2.198,2.2004,2.2049,2.209,2.2094,2.2111,2.213,2.2132,2.2041,2.2029,2.2017,2.2001,2.2134,2.2134,2.2225,2.2226,2.2226]},{"header":{"parameterUnit":"m.s-1","parameterCategory":1,"la1":30.2991,"la2":30.254,"lo1":-89.0895,"lo2":-89.0444,"dy":0.0017,"dx":0.0017,"nx":28,"ny":28,"refTime":"2023-06-19T21:00:00:Z","depth":0,"parameterNumber":3,"parameterNumberName":"V-component_of_WINDS"},"data":[0,0,0,0,0,0,0,0,0,0,0,0,0,0,0,0,0,0,0,0,0,0,0,0,0,0,0,0,0,0,0,0,0,0,0,0,0,0,0,0,0,0,0,0,0,0,0,0,0,0,0,0,0,0,0,0,0,0,3.1513,3.1514,0,3.1543,3.1544,3.1544,3.1569,3.1569,3.1569,3.1569,3.1596,3.1597,3.1597,0,0,0,0,0,0,0,0,0,0,0,0,0,3.1474,3.1474,3.1513,3.1514,3.1514,3.1543,3.1544,3.1544,3.1569,3.1569,3.1569,3.157,3.1596,3.1597,3.1597,0,0,0,0,0,0,0,0,0,0,0,0,0,3.1496,3.1475,3.1513,3.153,3.1532,3.1543,3.1544,3.1544,3.1569,3.1569,3.1569,3.157,3.1596,3.1597,3.1597,3.1594,0,0,3.16,3.16,0,0,0,0,0,0,0,0,3.1495,3.1497,3.1527,3.1529,3.1531,3.1553,3.154,3.1561,3.1568,3.1554,3.1569,3.157,3.1581,3.1583,3.1588,3.1595,3.1596,3.16,3.16,3.16,3.1601,0,0,0,0,0,0,0,3.1493,3.1496,3.1525,3.1527,3.153,3.1535,3.1538,3.1544,3.1565,3.1556,3.1558,3.1561,3.1582,3.1587,3.1589,3.1596,3.16,3.16,3.1601,3.1601,3.1601,3.16,0,0,0,0,0,0,3.149,3.1495,3.1524,3.1526,3.1514,3.1535,3.1539,3.1545,3.1565,3.1569,3.1561,3.1562,3.1586,3.1588,3.159,3.1586,3.16,3.1601,3.1601,3.1601,3.1601,3.16,0,0,0,0,0,0,3.1489,3.1492,3.1523,3.1511,3.1515,3.1535,3.1542,3.1546,3.155,3.1569,3.1572,3.1562,3.1586,3.1589,3.1593,3.1587,3.1601,3.1602,3.1602,3.1601,3.1601,3.1578,0,0,0,0,0,0,3.1487,3.1491,3.1491,3.1511,3.1516,3.1526,3.1542,3.1546,3.1552,3.1554,3.1571,3.1574,3.1587,3.1591,3.1593,3.1588,3.1602,3.1602,3.1602,3.1601,3.158,3.1577,3.1575,0,0,0,0,0,3.1486,3.1483,3.1491,3.1494,3.1516,3.1526,3.1529,3.1544,3.1551,3.1551,3.1562,3.1573,3.1588,3.1592,3.1594,3.1589,3.1603,3.1602,3.1601,3.1581,3.1578,3.1575,0,0,0,0,0,0,3.1461,3.1486,3.1495,3.1499,3.151,3.153,3.1529,3.1541,3.1549,3.1551,3.1569,3.1572,3.1574,3.1582,3.1586,3.1586,3.1597,3.1596,3.1581,3.1578,3.1575,3.1573,3.1603,0,0,0,0,0,3.1456,3.1463,3.1484,3.1485,3.1491,3.1509,3.1514,3.1525,3.1537,3.1542,3.1554,3.1564,3.1571,3.1575,3.1582,3.1581,3.1585,3.1579,3.1577,3.1575,3.1574,3.1573,3.157,3.1597,3.1597,3.1597,0,0,3.1445,3.146,3.1463,3.1481,3.1491,3.1497,3.1513,3.1518,3.1523,3.1542,3.1547,3.1556,3.1569,3.157,3.1571,3.1577,3.1567,3.1574,3.1572,3.1572,3.1572,3.1569,3.1567,3.1597,3.1597,3.1597,0,0,3.1429,3.1441,3.1443,3.1453,3.1469,3.1481,3.1482,3.15,3.1508,3.1513,3.1528,3.1532,3.1544,3.1552,3.1557,3.1544,3.1554,3.1546,3.1533,3.1532,3.153,3.1528,3.1523,3.1521,3.1545,3.1545,3.1545,0,3.1413,3.1424,3.1442,3.1447,3.1454,3.1474,3.1475,3.1484,3.15,3.1504,3.151,3.1525,3.1535,3.1538,3.1535,3.1539,3.1539,3.1544,3.1529,3.1528,3.1526,3.1521,3.1519,3.1544,3.1544,3.1544,3.1545,0,3.1403,3.141,3.141,3.1427,3.1434,3.1437,3.1455,3.1459,3.147,3.1481,3.1485,3.1498,3.1508,3.151,3.152,3.1514,3.1517,3.1526,3.1537,3.1522,3.1517,3.1516,3.1542,3.1543,3.1543,3.1544,0,0,3.1371,3.1399,3.1398,3.1406,3.1425,3.143,3.1434,3.1445,3.1447,3.1458,3.1461,3.147,3.1479,3.1485,3.1497,3.1496,3.1484,3.1505,3.1506,3.15,3.1477,3.1469,3.1466,3.1491,3.1491,3.149,3.1475,0,3.1356,3.1365,3.1382,3.1385,3.1391,3.141,3.1413,3.1424,3.1435,3.144,3.1452,3.1458,3.147,3.1473,3.1474,3.1485,3.1479,3.1486,3.1492,3.1492,3.1487,3.1464,3.1456,3.1441,3.1474,3.1473,3.1473,0,3.1341,3.1352,3.1355,3.1374,3.1377,3.138,3.1391,3.1397,3.1409,3.1417,3.1425,3.1437,3.1441,3.1451,3.1456,3.146,3.1464,3.147,3.1469,3.1469,3.1481,3.1462,3.1437,3.1434,3.1471,3.1471,3.1471,0,3.1315,3.1331,3.1335,3.1341,3.1363,3.1365,3.1373,3.1387,3.1392,3.1402,3.1405,3.1415,3.1419,3.1426,3.144,3.1447,3.1442,3.1454,3.1447,3.1447,3.1445,3.1444,3.1418,3.1449,3.1449,3.1449,3.1449,0,3.1297,3.1298,3.1324,3.1326,3.1328,3.1347,3.1348,3.1358,3.137,3.1374,3.1391,3.1394,3.1413,3.1418,3.1429,3.143,3.1432,3.1438,3.144,3.1436,3.1435,3.1437,3.1438,3.1448,3.1448,3.1448,3.1448,0,3.1268,3.1286,3.1291,3.1312,3.1317,3.1318,3.1335,3.1337,3.1349,3.1354,3.1356,3.1374,3.1381,3.1396,3.1406,3.1414,3.1412,3.1417,3.1408,3.1409,3.1401,3.1401,3.1374,3.1371,3.1405,3.1404,3.1404,0,3.1254,3.1256,3.1277,3.1282,3.129,3.1297,3.1303,3.1322,3.1327,3.1342,3.1342,3.1351,3.1358,3.1367,3.1381,3.1389,3.1394,3.1384,3.1395,3.139,3.1392,3.1392,3.1391,3.1381,3.1381,3.138,3.138,0,3.1228,3.1237,3.1245,3.1257,3.1264,3.1274,3.1284,3.1287,3.1308,3.1313,3.132,3.1326,3.1337,3.1345,3.1355,3.1363,3.1374,3.1377,3.1375,3.137,3.1363,3.1365,3.14,3.1377,3.1377,3.1377,3.1378,3.1378,3.1205,3.1207,3.1223,3.1232,3.1242,3.1252,3.1255,3.1268,3.1275,3.1286,3.1297,3.1303,3.1316,3.1331,3.1338,3.1342,3.1348,3.1346,3.1345,3.1344,3.1342,3.1364,3.1344,3.1344,3.1344,3.1344,3.1344,0,3.1178,3.119,3.1198,3.1213,3.122,3.1232,3.1245,3.1249,3.1255,3.1266,3.1273,3.1282,3.1289,3.1303,3.1312,3.1312,3.1318,3.1314,3.1313,3.1315,3.1336,3.1336,3.1309,3.1309,3.1309,3.1309,3.1309,3.1309,3.1165,3.1169,3.118,3.1189,3.12,3.1207,3.1213,3.1222,3.1231,3.124,3.1247,3.1257,3.1269,3.1278,3.1285,3.1289,3.1291,3.1285,3.129,3.131,3.1313,3.1316,3.1316,3.1285,3.1285,3.1268,3.1267,3.1267]}]]